Location: Rowland
(34.5359°N, 79.2929°W)
Time: 23:37:27
(UTC+00:00)

Transit 2A - Visible Passes

Search period start: 27 February 2024 00:00
Search period end: 08 March 2024 00:00
Orbit: 600 x 953 km, 66.7° (Epoch: 27 February)

Date Brightness Start Highest point End Pass type
(mag) Time Alt. Az. Time Alt. Az. Time Alt. Az.
27 Feb 5.5 00:10:14 10° SSW 00:14:40 85° WNW 00:19:00 10° NNE visible
27 Feb 7.4 09:03:34 34° ENE 09:03:34 34° ENE 09:08:19 10° ESE visible
27 Feb 7.0 10:44:06 20° WNW 10:46:19 26° WSW 10:50:55 10° SSW visible
27 Feb 5.6 23:35:22 10° S 23:39:42 55° ESE 23:43:56 10° NE visible
28 Feb 8.5 01:21:12 10° WNW 01:23:05 12° NW 01:24:58 10° NNW visible
28 Feb 8.6 08:30:56 16° E 08:30:56 16° E 08:32:29 10° ESE visible
28 Feb 6.4 10:11:28 41° WSW 10:11:28 41° WSW 10:16:38 10° S visible
29 Feb 8.1 00:44:40 10° WSW 00:47:51 19° NW 00:51:01 10° N visible
29 Feb 7.2 09:38:57 32° S 09:38:57 32° S 09:42:00 10° SSE visible
01 Mar 7.4 00:08:49 10° WSW 00:12:41 30° WNW 00:16:33 10° N visible
01 Mar 8.5 09:06:30 13° SSE 09:06:30 13° SSE 09:07:03 10° SSE visible
01 Mar 6.5 23:33:21 10° SW 23:37:37 50° WNW 23:41:50 10° NNE visible
04 Mar 8.4 00:09:06 10° WNW 00:11:00 13° NW 00:12:55 10° NNW visible
